Whiteman AFB, MO

9:02 AM CST on December 09, 2019 (GMT -0600)
Whiteman Air Force Base

Weather History for KSZL - October, 2019

Change the Weather History Date:

Wednesday, October 16, 2019

  Actual Average Record
Temperature  
Mean Temperature 46 °F -  
Max Temperature 54 °F 65 °F 85 °F (2016)
Min Temperature 39 °F 45 °F 27 °F (2018)
Degree Days  
Heating Degree Days 19    
Moisture  
Dew Point 38 °F    
Average Humidity 76    
Maximum Humidity 100    
Minimum Humidity 54    
Precipitation  
Precipitation 0.00 in - - ()
Sea Level Pressure  
Sea Level Pressure 30.13 in    
Wind  
Wind Speed 6 mph (NW)    
Max Wind Speed 12 mph    
Max Gust Speed -    
Visibility 10 miles    
Events      
Averages and records for this station are not official NWS values.
T = Trace of Precipitation, MM = Missing Value Source: NWS Daily Summary

Daily Weather History Graph

Daily Weather History Graph

Search for Another Location

Airport or City:

Astronomy

Oct. 16, 2019 Rise Set
Actual Time 7:24 AM CDT 6:34 PM CDT
Civil Twilight 6:57 AM CDT 7:01 PM CDT
Nautical Twilight 6:26 AM CDT 7:32 PM CDT
Astronomical Twilight 5:55 AM CDT 8:03 PM CDT
Moon 8:29 PM CDT (10/16) 9:54 AM CDT (10/16)
Length of Visible Light 12h 04m
Length of Day
11h 10m
Waning Gibbous, 92% of the Moon is Illuminated
Oct 16
Waning Gibbous
Oct 21
Last Quarter
Oct 27
New
Nov 4
First Quarter
Nov 12
Full

Hourly Weather History & Observations

Time (CDT) Temp. Windchill Dew Point Humidity Pressure Visibility Wind Dir Wind Speed Gust Speed Precip Events Conditions
1:56 AM 42.4 °F 38.8 °F 33.6 °F 71% 30.10 in 10.0 mi NW 5.8 mph - N/A   Clear
2:56 AM 41.2 °F 37.3 °F 34.2 °F 76% 30.12 in 10.0 mi WNW 5.8 mph - N/A   Clear
3:56 AM 40.5 °F 35.8 °F 34.7 °F 80% 30.12 in 10.0 mi WNW 6.9 mph - N/A   Clear
4:56 AM 39.7 °F 35.6 °F 35.2 °F 84% 30.10 in 10.0 mi NW 5.8 mph - N/A   Clear
5:56 AM 39.7 °F 34.9 °F 35.6 °F 85% 30.13 in 10.0 mi NW 6.9 mph - N/A   Scattered Clouds
6:56 AM 39.7 °F 34.9 °F 36.0 °F 86% 30.14 in 10.0 mi NNW 6.9 mph - N/A   Scattered Clouds
7:56 AM 39.0 °F 35.7 °F 36.7 °F 91% 30.13 in 10.0 mi NW 4.6 mph - N/A   Clear
8:56 AM 43.9 °F 39.9 °F 38.5 °F 81% 30.16 in 10.0 mi NNW 6.9 mph - N/A   Partly Cloudy
9:36 AM 48.2 °F - 39.2 °F 71% 30.16 in 10.0 mi NNW 10.4 mph - N/A   Scattered Clouds
9:40 AM 48.2 °F - 39.2 °F 71% 30.16 in 10.0 mi NNW 9.2 mph - N/A   Mostly Cloudy
10:00 AM 47.1 °F - 37.8 °F 70% 30.17 in 10.0 mi NNW 11.5 mph - N/A   Mostly Cloudy
10:56 AM 46.9 °F - 37.2 °F 69% 30.19 in 10.0 mi North 11.5 mph - N/A   Overcast
11:56 AM 48.0 °F - 37.6 °F 67% 30.18 in 10.0 mi NNW 10.4 mph - N/A   Overcast
12:56 PM 50.4 °F - 37.8 °F 62% 30.17 in 10.0 mi NW 8.1 mph - N/A   Mostly Cloudy
1:31 PM 50.0 °F - 37.4 °F 62% 30.17 in 10.0 mi WNW 9.2 mph - N/A   Overcast
2:56 PM 51.1 °F - 37.2 °F 59% 30.14 in 10.0 mi North 6.9 mph - N/A   Mostly Cloudy
3:56 PM 53.8 °F - 37.9 °F 55% 30.13 in 10.0 mi North 4.6 mph - N/A   Scattered Clouds
4:56 PM 53.4 °F - 37.2 °F 54% 30.11 in 10.0 mi WNW 3.5 mph - N/A   Scattered Clouds
5:56 PM 52.5 °F - 38.7 °F 59% 30.11 in 10.0 mi WNW 3.5 mph - N/A   Scattered Clouds
6:56 PM 47.3 °F - 41.7 °F 81% 30.11 in 10.0 mi Calm Calm - N/A   Partly Cloudy
7:56 PM 42.8 °F - 40.6 °F 92% 30.08 in 10.0 mi Calm Calm - N/A   Partly Cloudy
8:56 PM 41.5 °F - 41.0 °F 98% 30.06 in 10.0 mi Calm Calm - N/A   Partly Cloudy
9:56 PM 41.0 °F - 41.0 °F 100% 30.05 in 10.0 mi Calm Calm - N/A   Clear
10:56 PM 39.6 °F - 39.6 °F 100% 30.06 in 10.0 mi Calm Calm - N/A   Clear